Zurück zum Katalog

CSTB 1

AktivWissenschaftSSO
NORAD 31122·PAYLOAD·🇺🇸 United States

Gestartet Apr 17, 2007 von Baikonur Cosmodrome

Loading…

Nächste Überflüge (nächste 24 Stunden)

TLE

AktuellSource: Space-Track

Epoche: Sep 14, 2026, 11:30 UTC

1 31122U 07012F   26257.47944299  .00001527  00000-0  23758-3 0  9992
2 31122  98.4179 263.3953 0063458 344.9074  15.0237 14.73271491 34696

Verfolge CSTB 1 in Echtzeit mit AllMySat

Download on the App Store